| time (UTC) | temp F | wind direction | speed MPH | gust MPH | rain 1hr in | rain 24hr in | rain mn in | humidity % | barometer mb |
| 20260831165350 | 90 | 82 | 0.0 | 2.0 | 0.00 | 0.10 | 0.01 | 72 | 1019.2 |
| 20260831164831 | 90 | 69 | 0.0 | 2.0 | 0.00 | 0.10 | 0.01 | 70 | 1019.4 |
| 20260831164335 | 91 | 339 | 0.0 | 4.0 | 0.00 | 0.10 | 0.01 | 72 | 1019.5 |
| 20260831163838 | 91 | 344 | 1.0 | 4.0 | 0.00 | 0.10 | 0.01 | 70 | 1019.4 |
| 20260831163343 | 90 | 90 | 2.0 | 3.0 | 0.00 | 0.10 | 0.01 | 71 | 1019.4 |
| 20260831162825 | 90 | 5 | 0.0 | 3.0 | 0.00 | 0.10 | 0.01 | 72 | 1019.4 |
| 20260831162330 | 90 | 15 | 1.0 | 3.0 | 0.00 | 0.10 | 0.01 | 74 | 1019.5 |
| 20260831161830 | 90 | 94 | 0.0 | 2.0 | 0.00 | 0.10 | 0.01 | 72 | 1019.5 |
| 20260831161327 | 91 | 131 | 1.0 | 3.0 | 0.00 | 0.10 | 0.01 | 70 | 1019.7 |
| 20260831160829 | 91 | 327 | 1.0 | 5.0 | 0.00 | 0.10 | 0.01 | 72 | 1019.7 |
| 20260831160330 | 90 | 296 | 1.0 | 5.0 | 0.00 | 0.10 | 0.01 | 71 | 1019.7 |
| 20260831155830 | 90 | 80 | 1.0 | 4.0 | 0.00 | 0.10 | 0.01 | 69 | 1019.8 |
| 20260831155358 | 89 | 324 | 1.0 | 4.0 | 0.00 | 0.10 | 0.01 | 70 | 1019.9 |
| 20260831154839 | 89 | 148 | 1.0 | 3.0 | 0.00 | 0.10 | 0.01 | 72 | 1020.0 |
| 20260831154341 | 88 | 335 | 0.0 | 3.0 | 0.00 | 0.10 | 0.01 | 73 | 1020.1 |
| 20260831153842 | 88 | 55 | 1.0 | 3.0 | 0.00 | 0.10 | 0.01 | 75 | 1020.1 |
| 20260831153345 | 88 | 298 | 1.0 | 3.0 | 0.00 | 0.10 | 0.01 | 76 | 1020.1 |
| 20260831152846 | 88 | 23 | 1.0 | 3.0 | 0.00 | 0.10 | 0.01 | 77 | 1020.1 |
| 20260831152347 | 87 | 19 | 0.0 | 2.0 | 0.00 | 0.10 | 0.01 | 77 | 1020.1 |
| 20260831151826 | 87 | 158 | 1.0 | 2.0 | 0.00 | 0.10 | 0.01 | 79 | 1020.0 |
| 20260831151332 | 86 | 256 | 0.0 | 1.0 | 0.00 | 0.10 | 0.01 | 79 | 1020.0 |
| 20260831150834 | 86 | 200 | 0.0 | 1.0 | 0.00 | 0.10 | 0.01 | 79 | 1020.0 |
| 20260831150404 | 86 | 204 | 0.0 | 2.0 | 0.00 | 0.10 | 0.01 | 80 | 1019.9 |
| 20260831145822 | 86 | 226 | 0.0 | 2.0 | 0.00 | 0.10 | 0.01 | 80 | 1019.9 |
| 20260831145333 | 85 | 192 | 0.0 | 2.0 | 0.00 | 0.10 | 0.01 | 80 | 1019.8 |
| 20260831144834 | 85 | 219 | 0.0 | 2.0 | 0.00 | 0.10 | 0.01 | 82 | 1019.8 |
| 20260831144336 | 85 | 225 | 0.0 | 1.0 | 0.00 | 0.10 | 0.01 | 83 | 1019.7 |
| 20260831143838 | 84 | 226 | 0.0 | 2.0 | 0.00 | 0.10 | 0.01 | 83 | 1019.7 |
| 20260831143340 | 84 | 243 | 0.0 | 2.0 | 0.00 | 0.10 | 0.01 | 84 | 1019.7 |
| 20260831142840 | 84 | 221 | 1.0 | 2.0 | 0.00 | 0.10 | 0.01 | 85 | 1019.6 |
| 20260831142406 | 83 | 142 | 1.0 | 2.0 | 0.00 | 0.10 | 0.01 | 89 | 1019.6 |
| 20260831141846 | 83 | 195 | 0.0 | 3.0 | 0.00 | 0.10 | 0.01 | 91 | 1019.6 |
| 20260831141347 | 82 | 136 | 0.0 | 3.0 | 0.00 | 0.10 | 0.01 | 92 | 1019.6 |
| 20260831140849 | 82 | 100 | 0.0 | 2.0 | 0.00 | 0.10 | 0.01 | 94 | 1019.6 |
| 20260831140359 | 81 | 107 | 1.0 | 2.0 | 0.00 | 0.10 | 0.01 | 96 | 1019.5 |
| 20260831135836 | 80 | 292 | 0.0 | 1.0 | 0.00 | 0.10 | 0.01 | 96 | 1019.6 |
| 20260831135338 | 80 | 292 | 0.0 | 2.0 | 0.00 | 0.10 | 0.01 | 96 | 1019.5 |
| 20260831134840 | 80 | 351 | 0.0 | 2.0 | 0.00 | 0.10 | 0.01 | 96 | 1019.6 |
| 20260831134340 | 80 | 5 | 0.0 | 1.0 | 0.00 | 0.10 | 0.01 | 96 | 1019.5 |
| 20260831133841 | 80 | 22 | 0.0 | 1.0 | 0.00 | 0.10 | 0.01 | 96 | 1019.5 |
| 20260831133326 | 79 | 5 | 0.0 | 1.0 | 0.00 | 0.10 | 0.01 | 96 | 1019.5 |
| 20260831132825 | 79 | 5 | 0.0 | 1.0 | 0.00 | 0.10 | 0.01 | 96 | 1019.5 |
| 20260831132326 | 79 | 5 | 0.0 | 1.0 | 0.00 | 0.10 | 0.01 | 96 | 1019.4 |
| 20260831131910 | 79 | 5 | 0.0 | 1.0 | 0.00 | 0.10 | 0.01 | 96 | 1019.4 |
| 20260831131332 | 79 | 5 | 0.0 | 1.0 | 0.00 | 0.10 | 0.01 | 96 | 1019.4 |
| 20260831130835 | 79 | 5 | 0.0 | 1.0 | 0.00 | 0.10 | 0.01 | 96 | 1019.5 |
| 20260831130348 | 79 | 5 | 0.0 | 2.0 | 0.00 | 0.10 | 0.01 | 96 | 1019.4 |
| 20260831125828 | 78 | 80 | 0.0 | 2.0 | 0.00 | 0.10 | 0.01 | 96 | 1019.4 |
| 20260831125332 | 78 | 84 | 0.0 | 1.0 | 0.00 | 0.10 | 0.01 | 96 | 1019.4 |
| 20260831124835 | 78 | 84 | 0.0 | 0.0 | 0.00 | 0.10 | 0.01 | 96 | 1019.3 |
| 20260831124336 | 78 | 84 | 0.0 | 0.0 | 0.00 | 0.10 | 0.01 | 96 | 1019.3 |
| 20260831123838 | 78 | 84 | 0.0 | 0.0 | 0.00 | 0.10 | 0.01 | 96 | 1019.2 |
| 20260831123341 | 78 | 84 | 0.0 | 0.0 | 0.00 | 0.10 | 0.01 | 96 | 1019.1 |
| 20260831122843 | 77 | 84 | 0.0 | 0.0 | 0.00 | 0.10 | 0.01 | 96 | 1019.1 |
| 20260831122341 | 77 | 84 | 0.0 | 0.0 | 0.00 | 0.10 | 0.01 | 96 | 1019.0 |
| 20260831121844 | 76 | 84 | 0.0 | 0.0 | 0.00 | 0.10 | 0.01 | 96 | 1019.0 |
| 20260831121327 | 76 | 84 | 0.0 | 0.0 | 0.00 | 0.10 | 0.01 | 96 | 1018.9 |
| 20260831120829 | 76 | 84 | 0.0 | 0.0 | 0.00 | 0.10 | 0.01 | 96 | 1019.0 |
| 20260831120400 | 77 | 84 | 0.0 | 0.0 | 0.00 | 0.10 | 0.01 | 96 | 1018.9 |
| 20260831115838 | 76 | 84 | 0.0 | 0.0 | 0.00 | 0.10 | 0.01 | 96 | 1018.9 |
| 20260831115408 | 76 | 84 | 0.0 | 0.0 | 0.00 | 0.10 | 0.01 | 95 | 1018.8 |
| 20260831114848 | 76 | 84 | 0.0 | 0.0 | 0.00 | 0.10 | 0.01 | 95 | 1018.8 |
| 20260831114350 | 75 | 84 | 0.0 | 0.0 | 0.00 | 0.10 | 0.01 | 95 | 1018.7 |
| 20260831113851 | 75 | 84 | 0.0 | 0.0 | 0.00 | 0.10 | 0.01 | 94 | 1018.7 |
| 20260831113333 | 75 | 84 | 0.0 | 0.0 | 0.00 | 0.10 | 0.01 | 94 | 1018.7 |
| 20260831112829 | 75 | 84 | 0.0 | 0.0 | 0.00 | 0.10 | 0.01 | 94 | 1018.7 |
| 20260831112332 | 75 | 84 | 0.0 | 0.0 | 0.01 | 0.10 | 0.01 | 94 | 1018.7 |
| 20260831111835 | 75 | 84 | 0.0 | 0.0 | 0.01 | 0.10 | 0.01 | 94 | 1018.7 |
| 20260831111406 | 75 | 84 | 0.0 | 0.0 | 0.01 | 0.10 | 0.01 | 94 | 1018.6 |
| 20260831110847 | 75 | 84 | 0.0 | 0.0 | 0.01 | 0.10 | 0.01 | 94 | 1018.5 |
| 20260831110349 | 75 | 84 | 0.0 | 0.0 | 0.01 | 0.10 | 0.01 | 94 | 1018.4 |
| 20260831105850 | 75 | 84 | 0.0 | 0.0 | 0.01 | 0.10 | 0.01 | 94 | 1018.3 |
| 20260831105331 | 75 | 84 | 0.0 | 0.0 | 0.01 | 0.10 | 0.01 | 94 | 1018.3 |
| 20260831104833 | 75 | 84 | 0.0 | 0.0 | 0.01 | 0.10 | 0.01 | 94 | 1018.2 |
| 20260831104334 | 75 | 84 | 0.0 | 0.0 | 0.01 | 0.10 | 0.01 | 93 | 1018.2 |
| 20260831103836 | 75 | 84 | 0.0 | 0.0 | 0.01 | 0.10 | 0.01 | 93 | 1018.1 |
| 20260831103338 | 75 | 84 | 0.0 | 0.0 | 0.01 | 0.10 | 0.01 | 93 | 1018.1 |
| 20260831102835 | 75 | 84 | 0.0 | 0.0 | 0.01 | 0.10 | 0.01 | 93 | 1018.0 |
| 20260831102344 | 75 | 84 | 0.0 | 0.0 | 0.00 | 0.09 | 0.00 | 93 | 1018.0 |
| 20260831101826 | 75 | 84 | 0.0 | 0.0 | 0.00 | 0.09 | 0.00 | 93 | 1018.1 |
| 20260831101358 | 75 | 84 | 0.0 | 0.0 | 0.00 | 0.09 | 0.00 | 93 | 1018.0 |
| 20260831100841 | 75 | 84 | 0.0 | 0.0 | 0.00 | 0.09 | 0.00 | 93 | 1017.9 |
| 20260831100325 | 75 | 84 | 0.0 | 0.0 | 0.00 | 0.09 | 0.00 | 93 | 1017.8 |
| 20260831095834 | 75 | 84 | 0.0 | 0.0 | 0.00 | 0.10 | 0.00 | 93 | 1017.8 |
| 20260831095338 | 75 | 84 | 0.0 | 0.0 | 0.00 | 0.10 | 0.00 | 93 | 1017.6 |
| 20260831094841 | 75 | 84 | 0.0 | 0.0 | 0.00 | 0.10 | 0.00 | 93 | 1017.7 |
| 20260831094345 | 75 | 84 | 0.0 | 0.0 | 0.00 | 0.10 | 0.00 | 93 | 1017.8 |
| 20260831093827 | 75 | 84 | 0.0 | 0.0 | 0.00 | 0.10 | 0.00 | 93 | 1017.7 |
| 20260831093355 | 75 | 84 | 0.0 | 0.0 | 0.00 | 0.10 | 0.00 | 93 | 1017.6 |
| 20260831092838 | 75 | 84 | 0.0 | 0.0 | 0.00 | 0.10 | 0.00 | 93 | 1017.6 |
| 20260831092341 | 75 | 84 | 0.0 | 0.0 | 0.00 | 0.10 | 0.00 | 93 | 1017.7 |
| 20260831091825 | 75 | 84 | 0.0 | 0.0 | 0.00 | 0.10 | 0.00 | 93 | 1017.8 |
| 20260831091357 | 75 | 84 | 0.0 | 0.0 | 0.00 | 0.10 | 0.00 | 93 | 1017.8 |
| 20260831090841 | 75 | 84 | 0.0 | 0.0 | 0.00 | 0.10 | 0.00 | 93 | 1017.8 |
| 20260831090324 | 75 | 84 | 0.0 | 0.0 | 0.00 | 0.10 | 0.00 | 93 | 1017.7 |
| 20260831085854 | 75 | 84 | 0.0 | 0.0 | 0.00 | 0.10 | 0.00 | 93 | 1017.9 |
| 20260831085405 | 75 | 84 | 0.0 | 0.0 | 0.00 | 0.10 | 0.00 | 93 | 1017.8 |
| 20260831084827 | 75 | 84 | 0.0 | 0.0 | 0.00 | 0.10 | 0.00 | 93 | 1017.9 |
| 20260831084331 | 75 | 84 | 0.0 | 0.0 | 0.00 | 0.10 | 0.00 | 93 | 1017.9 |
| 20260831083830 | 75 | 84 | 0.0 | 0.0 | 0.00 | 0.10 | 0.00 | 93 | 1017.9 |
| 20260831083330 | 75 | 84 | 0.0 | 0.0 | 0.00 | 0.10 | 0.00 | 93 | 1017.9 |
| 20260831082828 | 75 | 84 | 0.0 | 0.0 | 0.00 | 0.10 | 0.00 | 93 | 1017.8 |
| 20260831082328 | 75 | 84 | 0.0 | 0.0 | 0.00 | 0.10 | 0.00 | 93 | 1017.8 |
| 20260831081827 | 75 | 84 | 0.0 | 0.0 | 0.00 | 0.10 | 0.00 | 93 | 1017.8 |
| 20260831081328 | 75 | 84 | 0.0 | 0.0 | 0.00 | 0.10 | 0.00 | 93 | 1017.9 |
| 20260831080828 | 76 | 84 | 0.0 | 0.0 | 0.00 | 0.10 | 0.00 | 93 | 1018.0 |
| 20260831080327 | 76 | 84 | 0.0 | 0.0 | 0.00 | 0.10 | 0.00 | 93 | 1018.1 |
| 20260831075825 | 76 | 84 | 0.0 | 0.0 | 0.00 | 0.10 | 0.00 | 92 | 1018.2 |
| 20260831075325 | 75 | 84 | 0.0 | 0.0 | 0.00 | 0.10 | 0.00 | 92 | 1018.1 |
| 20260831074825 | 76 | 84 | 0.0 | 0.0 | 0.00 | 0.10 | 0.00 | 92 | 1018.1 |
| 20260831074324 | 76 | 84 | 0.0 | 0.0 | 0.00 | 0.10 | 0.00 | 92 | 1018.1 |
| 20260831073847 | 76 | 84 | 0.0 | 0.0 | 0.00 | 0.10 | 0.00 | 92 | 1018.2 |
| 20260831073325 | 76 | 84 | 0.0 | 0.0 | 0.00 | 0.10 | 0.00 | 92 | 1018.2 |
| 20260831072853 | 76 | 84 | 0.0 | 0.0 | 0.00 | 0.10 | 0.00 | 92 | 1018.2 |
| 20260831072334 | 76 | 84 | 0.0 | 0.0 | 0.00 | 0.10 | 0.00 | 92 | 1018.3 |
| 20260831071835 | 76 | 84 | 0.0 | 0.0 | 0.00 | 0.10 | 0.00 | 92 | 1018.3 |
| 20260831071345 | 76 | 84 | 0.0 | 0.0 | 0.00 | 0.10 | 0.00 | 92 | 1018.4 |
| 20260831070844 | 76 | 84 | 0.0 | 0.0 | 0.00 | 0.10 | 0.00 | 92 | 1018.4 |
| 20260831070354 | 76 | 84 | 0.0 | 0.0 | 0.00 | 0.10 | 0.00 | 92 | 1018.5 |
| 20260831065836 | 76 | 84 | 0.0 | 0.0 | 0.00 | 0.10 | 0.00 | 92 | 1018.5 |
| 20260831065334 | 76 | 84 | 0.0 | 0.0 | 0.00 | 0.10 | 0.00 | 92 | 1018.5 |
| 20260831064836 | 76 | 84 | 0.0 | 0.0 | 0.00 | 0.10 | 0.00 | 92 | 1018.6 |
| 20260831064338 | 76 | 84 | 0.0 | 0.0 | 0.00 | 0.10 | 0.00 | 92 | 1018.5 |
| 20260831063841 | 76 | 84 | 0.0 | 0.0 | 0.00 | 0.10 | 0.00 | 92 | 1018.5 |
| 20260831063342 | 76 | 84 | 0.0 | 0.0 | 0.00 | 0.10 | 0.00 | 92 | 1018.5 |
| 20260831062842 | 77 | 84 | 0.0 | 0.0 | 0.00 | 0.10 | 0.00 | 92 | 1018.6 |
| 20260831062346 | 77 | 84 | 0.0 | 0.0 | 0.00 | 0.10 | 0.00 | 92 | 1018.6 |
| 20260831061828 | 77 | 84 | 0.0 | 0.0 | 0.00 | 0.10 | 0.00 | 92 | 1018.6 |
| 20260831061330 | 77 | 84 | 0.0 | 0.0 | 0.00 | 0.10 | 0.00 | 92 | 1018.6 |
| 20260831060900 | 77 | 84 | 0.0 | 0.0 | 0.00 | 0.10 | 0.00 | 92 | 1018.7 |
| 20260831060342 | 77 | 84 | 0.0 | 0.0 | 0.00 | 0.10 | 0.00 | 92 | 1018.7 |
| 20260831055907 | 77 | 84 | 0.0 | 0.0 | 0.00 | 0.10 | 0.00 | 92 | 1018.8 |
| 20260831055349 | 77 | 84 | 0.0 | 0.0 | 0.00 | 0.10 | 0.00 | 92 | 1018.8 |
| 20260831054831 | 77 | 84 | 0.0 | 0.0 | 0.00 | 0.10 | 0.00 | 92 | 1018.8 |
| 20260831054332 | 77 | 84 | 0.0 | 0.0 | 0.00 | 0.10 | 0.00 | 92 | 1018.8 |
| 20260831053835 | 77 | 84 | 0.0 | 0.0 | 0.00 | 0.10 | 0.00 | 92 | 1018.8 |
| 20260831053338 | 77 | 84 | 0.0 | 0.0 | 0.00 | 0.10 | 0.00 | 92 | 1018.9 |
| 20260831052839 | 77 | 84 | 0.0 | 0.0 | 0.00 | 0.10 | 0.00 | 92 | 1018.9 |
| 20260831052323 | 77 | 84 | 0.0 | 0.0 | 0.00 | 0.10 | 0.00 | 92 | 1018.8 |
| 20260831051856 | 77 | 84 | 0.0 | 0.0 | 0.00 | 0.10 | 0.00 | 92 | 1018.9 |
| 20260831051345 | 78 | 84 | 0.0 | 0.0 | 0.00 | 0.10 | 0.00 | 92 | 1018.9 |
| 20260831050848 | 78 | 84 | 0.0 | 0.0 | 0.00 | 0.10 | 0.00 | 92 | 1018.9 |
| 20260831050352 | 78 | 84 | 0.0 | 0.0 | 0.00 | 0.10 | 0.00 | 92 | 1019.0 |
| 20260831045828 | 78 | 84 | 0.0 | 0.0 | 0.00 | 0.10 | 0.00 | 92 | 1019.0 |
| 20260831045330 | 78 | 84 | 0.0 | 0.0 | 0.00 | 0.10 | 0.00 | 92 | 1019.0 |
| 20260831044834 | 78 | 84 | 0.0 | 0.0 | 0.00 | 0.10 | 0.00 | 92 | 1019.0 |
| 20260831044336 | 78 | 84 | 0.0 | 0.0 | 0.00 | 0.10 | 0.00 | 92 | 1019.0 |
| 20260831043840 | 78 | 84 | 0.0 | 0.0 | 0.00 | 0.10 | 0.00 | 91 | 1019.1 |
| 20260831043325 | 78 | 84 | 0.0 | 0.0 | 0.00 | 0.10 | 0.00 | 92 | 1019.0 |
| 20260831042826 | 78 | 84 | 0.0 | 0.0 | 0.00 | 0.10 | 0.00 | 92 | 1018.9 |
| 20260831042330 | 78 | 84 | 0.0 | 0.0 | 0.00 | 0.10 | 0.00 | 91 | 1018.9 |
| 20260831041833 | 78 | 84 | 0.0 | 0.0 | 0.00 | 0.10 | 0.00 | 91 | 1018.9 |
| 20260831041425 | 78 | 84 | 0.0 | 0.0 | 0.00 | 0.10 | 0.00 | 91 | 1018.9 |
| 20260831040824 | 79 | 84 | 0.0 | 0.0 | 0.00 | 0.10 | 0.00 | 91 | 1018.9 |
| 20260831040326 | 79 | 84 | 0.0 | 0.0 | 0.00 | 0.10 | 0.00 | 91 | 1018.9 |
| 20260831035841 | 79 | 84 | 0.0 | 0.0 | 0.00 | 0.10 | 0.10 | 91 | 1019.0 |
| 20260831035343 | 79 | 84 | 0.0 | 0.0 | 0.00 | 0.10 | 0.10 | 91 | 1019.0 |
| 20260831034823 | 79 | 84 | 0.0 | 0.0 | 0.00 | 0.10 | 0.10 | 91 | 1019.1 |
| 20260831034325 | 79 | 84 | 0.0 | 0.0 | 0.00 | 0.10 | 0.10 | 91 | 1019.1 |
| 20260831033827 | 79 | 84 | 0.0 | 0.0 | 0.00 | 0.10 | 0.10 | 91 | 1019.0 |
| 20260831033330 | 79 | 84 | 0.0 | 0.0 | 0.00 | 0.10 | 0.10 | 91 | 1019.1 |
| 20260831032830 | 79 | 84 | 0.0 | 0.0 | 0.00 | 0.10 | 0.10 | 90 | 1019.1 |
| 20260831032332 | 79 | 84 | 0.0 | 0.0 | 0.00 | 0.10 | 0.10 | 90 | 1019.1 |
| 20260831031834 | 79 | 84 | 0.0 | 0.0 | 0.00 | 0.10 | 0.10 | 90 | 1019.1 |
| 20260831031335 | 80 | 84 | 0.0 | 0.0 | 0.00 | 0.10 | 0.10 | 90 | 1019.1 |
| 20260831030837 | 80 | 84 | 0.0 | 0.0 | 0.00 | 0.10 | 0.10 | 90 | 1019.2 |
| 20260831030340 | 80 | 84 | 0.0 | 0.0 | 0.00 | 0.10 | 0.10 | 90 | 1019.2 |
| 20260831025841 | 80 | 84 | 0.0 | 0.0 | 0.00 | 0.10 | 0.10 | 90 | 1019.3 |
| 20260831025338 | 80 | 84 | 0.0 | 0.0 | 0.00 | 0.10 | 0.10 | 90 | 1019.3 |
| 20260831024841 | 80 | 84 | 0.0 | 0.0 | 0.00 | 0.10 | 0.10 | 90 | 1019.3 |
| 20260831024342 | 80 | 84 | 0.0 | 0.0 | 0.00 | 0.10 | 0.10 | 90 | 1019.3 |
| 20260831023824 | 80 | 84 | 0.0 | 0.0 | 0.00 | 0.10 | 0.10 | 90 | 1019.3 |
| 20260831023327 | 80 | 84 | 0.0 | 0.0 | 0.00 | 0.10 | 0.10 | 90 | 1019.3 |
| 20260831022828 | 80 | 84 | 0.0 | 0.0 | 0.00 | 0.10 | 0.10 | 90 | 1019.3 |
| 20260831022330 | 80 | 84 | 0.0 | 0.0 | 0.00 | 0.10 | 0.10 | 90 | 1019.2 |
| 20260831021901 | 80 | 84 | 0.0 | 0.0 | 0.00 | 0.10 | 0.10 | 90 | 1019.2 |
| 20260831021342 | 81 | 84 | 0.0 | 2.0 | 0.00 | 0.10 | 0.10 | 90 | 1019.2 |
| 20260831020843 | 81 | 84 | 0.0 | 2.0 | 0.00 | 0.10 | 0.10 | 90 | 1019.3 |
| 20260831020325 | 81 | 96 | 0.0 | 1.0 | 0.00 | 0.10 | 0.10 | 90 | 1019.2 |
| 20260831015826 | 81 | 96 | 0.0 | 1.0 | 0.00 | 0.10 | 0.10 | 90 | 1019.2 |
| 20260831015352 | 81 | 96 | 0.0 | 0.0 | 0.00 | 0.10 | 0.10 | 90 | 1019.1 |
| 20260831014840 | 81 | 96 | 0.0 | 0.0 | 0.00 | 0.10 | 0.10 | 90 | 1019.2 |
| 20260831014342 | 81 | 96 | 0.0 | 0.0 | 0.00 | 0.10 | 0.10 | 89 | 1019.2 |
| 20260831013825 | 81 | 96 | 0.0 | 0.0 | 0.00 | 0.10 | 0.10 | 89 | 1019.2 |
| 20260831013335 | 81 | 96 | 0.0 | 0.0 | 0.00 | 0.10 | 0.10 | 89 | 1019.2 |
| 20260831012835 | 81 | 96 | 0.0 | 0.0 | 0.00 | 0.10 | 0.10 | 89 | 1019.2 |
| 20260831012337 | 81 | 96 | 0.0 | 0.0 | 0.00 | 0.10 | 0.10 | 89 | 1019.1 |
| 20260831011840 | 81 | 96 | 0.0 | 0.0 | 0.00 | 0.10 | 0.10 | 89 | 1019.2 |
| 20260831011344 | 81 | 96 | 0.0 | 0.0 | 0.00 | 0.10 | 0.10 | 89 | 1019.2 |
| 20260831010848 | 81 | 96 | 0.0 | 0.0 | 0.00 | 0.10 | 0.10 | 89 | 1019.1 |
| 20260831010354 | 81 | 96 | 0.0 | 0.0 | 0.00 | 0.10 | 0.10 | 89 | 1019.2 |
| 20260831005837 | 81 | 96 | 0.0 | 0.0 | 0.00 | 0.12 | 0.10 | 89 | 1019.2 |
| 20260831005341 | 81 | 96 | 0.0 | 1.0 | 0.00 | 0.12 | 0.10 | 89 | 1019.1 |
| 20260831004826 | 81 | 96 | 0.0 | 1.0 | 0.00 | 0.12 | 0.10 | 89 | 1019.0 |
| 20260831004330 | 81 | 96 | 0.0 | 0.0 | 0.00 | 0.12 | 0.10 | 89 | 1019.0 |
| 20260831003902 | 81 | 96 | 0.0 | 0.0 | 0.00 | 0.12 | 0.10 | 89 | 1019.1 |
| 20260831003326 | 81 | 96 | 0.0 | 0.0 | 0.00 | 0.12 | 0.10 | 88 | 1019.1 |
| 20260831002857 | 81 | 96 | 0.0 | 0.0 | 0.00 | 0.12 | 0.10 | 88 | 1019.1 |
| 20260831002340 | 81 | 96 | 0.0 | 0.0 | 0.00 | 0.12 | 0.10 | 88 | 1019.0 |
| 20260831001825 | 81 | 96 | 0.0 | 0.0 | 0.00 | 0.12 | 0.10 | 88 | 1018.9 |
| 20260831001329 | 82 | 96 | 0.0 | 0.0 | 0.00 | 0.12 | 0.10 | 88 | 1018.8 |
| 20260831000831 | 82 | 96 | 0.0 | 0.0 | 0.00 | 0.12 | 0.10 | 88 | 1018.8 |
| 20260831000343 | 82 | 96 | 0.0 | 0.0 | 0.00 | 0.12 | 0.10 | 88 | 1018.8 |
| 20260830235825 | 82 | 96 | 0.0 | 0.0 | 0.00 | 0.13 | 0.10 | 88 | 1018.8 |
| 20260830235329 | 82 | 96 | 0.0 | 0.0 | 0.00 | 0.13 | 0.10 | 88 | 1018.8 |
| 20260830234828 | 82 | 96 | 0.0 | 1.0 | 0.00 | 0.13 | 0.10 | 88 | 1018.7 |
| 20260830234331 | 82 | 96 | 0.0 | 1.0 | 0.00 | 0.13 | 0.10 | 87 | 1018.7 |
| 20260830233835 | 82 | 96 | 0.0 | 1.0 | 0.00 | 0.13 | 0.10 | 87 | 1018.7 |
| 20260830233340 | 82 | 96 | 0.0 | 1.0 | 0.00 | 0.13 | 0.10 | 87 | 1018.7 |
| 20260830232842 | 82 | 96 | 0.0 | 1.0 | 0.00 | 0.13 | 0.10 | 87 | 1018.8 |
| 20260830232325 | 82 | 96 | 0.0 | 0.0 | 0.00 | 0.13 | 0.10 | 87 | 1018.7 |
| 20260830231825 | 82 | 96 | 0.0 | 1.0 | 0.00 | 0.13 | 0.10 | 87 | 1018.7 |
| 20260830231353 | 82 | 96 | 0.0 | 1.0 | 0.00 | 0.13 | 0.10 | 87 | 1018.7 |
| 20260830230831 | 82 | 96 | 0.0 | 2.0 | 0.00 | 0.13 | 0.10 | 87 | 1018.7 |
| 20260830230400 | 82 | 96 | 0.0 | 2.0 | 0.00 | 0.13 | 0.10 | 87 | 1018.7 |
| 20260830225838 | 82 | 132 | 0.0 | 1.0 | 0.00 | 0.13 | 0.10 | 87 | 1018.7 |
| 20260830225341 | 82 | 132 | 0.0 | 2.0 | 0.00 | 0.13 | 0.10 | 86 | 1018.8 |
| 20260830224823 | 82 | 72 | 0.0 | 2.0 | 0.00 | 0.13 | 0.10 | 86 | 1018.8 |
| 20260830224349 | 82 | 72 | 0.0 | 2.0 | 0.00 | 0.13 | 0.10 | 86 | 1018.7 |
| 20260830223830 | 82 | 72 | 1.0 | 2.0 | 0.00 | 0.13 | 0.10 | 86 | 1018.6 |
| 20260830223332 | 82 | 72 | 1.0 | 4.0 | 0.00 | 0.13 | 0.10 | 86 | 1018.5 |
| 20260830222831 | 82 | 67 | 1.0 | 4.0 | 0.00 | 0.13 | 0.10 | 86 | 1018.5 |
| 20260830222333 | 82 | 69 | 1.0 | 3.0 | 0.00 | 0.13 | 0.10 | 86 | 1018.5 |
| 20260830221835 | 82 | 106 | 0.0 | 4.0 | 0.00 | 0.13 | 0.10 | 86 | 1018.4 |
| 20260830221338 | 82 | 69 | 2.0 | 4.0 | 0.00 | 0.13 | 0.10 | 86 | 1018.4 |
| 20260830220840 | 82 | 93 | 1.0 | 3.0 | 0.00 | 0.13 | 0.10 | 86 | 1018.4 |
| 20260830220343 | 82 | 138 | 0.0 | 3.0 | 0.00 | 0.13 | 0.10 | 86 | 1018.4 |
| 20260830215824 | 82 | 59 | 1.0 | 2.0 | 0.00 | 0.13 | 0.10 | 87 | 1018.4 |
| 20260830215327 | 82 | 142 | 0.0 | 2.0 | 0.00 | 0.13 | 0.10 | 86 | 1018.3 |
| 20260830214829 | 82 | 68 | 0.0 | 3.0 | 0.00 | 0.13 | 0.10 | 86 | 1018.2 |
| 20260830214333 | 82 | 62 | 0.0 | 3.0 | 0.00 | 0.13 | 0.10 | 86 | 1018.2 |
| 20260830213832 | 82 | 80 | 0.0 | 2.0 | 0.00 | 0.13 | 0.10 | 87 | 1018.2 |
| 20260830213337 | 82 | 126 | 0.0 | 2.0 | 0.00 | 0.13 | 0.10 | 87 | 1018.2 |
| 20260830212841 | 82 | 127 | 0.0 | 3.0 | 0.00 | 0.13 | 0.10 | 87 | 1018.2 |
| 20260830212345 | 81 | 128 | 1.0 | 5.0 | 0.00 | 0.13 | 0.10 | 87 | 1018.1 |
| 20260830211849 | 81 | 134 | 2.0 | 5.0 | 0.00 | 0.13 | 0.10 | 86 | 1018.1 |
| 20260830211353 | 81 | 81 | 2.0 | 3.0 | 0.00 | 0.13 | 0.10 | 86 | 1018.0 |
| 20260830210836 | 81 | 69 | 1.0 | 3.0 | 0.00 | 0.13 | 0.10 | 86 | 1018.0 |
| 20260830210346 | 81 | 82 | 1.0 | 4.0 | 0.00 | 0.13 | 0.10 | 86 | 1018.0 |
| 20260830205846 | 81 | 121 | 1.0 | 7.0 | 0.00 | 0.21 | 0.10 | 86 | 1018.0 |
| 20260830205347 | 81 | 128 | 2.0 | 5.0 | 0.00 | 0.21 | 0.10 | 86 | 1018.0 |
| 20260830204827 | 81 | 128 | 1.0 | 6.0 | 0.00 | 0.21 | 0.10 | 86 | 1018.0 |
| 20260830204328 | 81 | 63 | 2.0 | 7.0 | 0.00 | 0.21 | 0.10 | 86 | 1018.0 |
| 20260830203826 | 81 | 143 | 2.0 | 7.0 | 0.00 | 0.21 | 0.10 | 86 | 1018.0 |
| 20260830203329 | 81 | 127 | 1.0 | 3.0 | 0.00 | 0.21 | 0.10 | 87 | 1018.1 |
| 20260830202900 | 81 | 130 | 0.0 | 2.0 | 0.03 | 0.21 | 0.10 | 87 | 1018.2 |
| 20260830202341 | 81 | 130 | 0.0 | 2.0 | 0.07 | 0.21 | 0.10 | 88 | 1018.3 |
| 20260830201824 | 81 | 168 | 0.0 | 1.0 | 0.09 | 0.21 | 0.10 | 88 | 1018.4 |
| 20260830201327 | 81 | 90 | 0.0 | 2.0 | 0.09 | 0.21 | 0.10 | 87 | 1018.5 |
| 20260830200830 | 81 | 135 | 0.0 | 2.0 | 0.09 | 0.21 | 0.10 | 88 | 1018.5 |
| 20260830200342 | 81 | 84 | 0.0 | 2.0 | 0.09 | 0.21 | 0.10 | 88 | 1018.4 |
| 20260830195824 | 81 | 84 | 1.0 | 6.0 | 0.09 | 0.23 | 0.10 | 89 | 1018.4 |
| 20260830195328 | 81 | 87 | 1.0 | 7.0 | 0.09 | 0.23 | 0.10 | 89 | 1018.4 |
| 20260830194827 | 81 | 98 | 3.0 | 7.0 | 0.09 | 0.23 | 0.10 | 89 | 1018.4 |
| 20260830194327 | 81 | 124 | 1.0 | 5.0 | 0.09 | 0.23 | 0.10 | 89 | 1018.5 |
| 20260830193852 | 81 | 123 | 2.0 | 4.0 | 0.09 | 0.23 | 0.10 | 88 | 1018.6 |
| 20260830193336 | 81 | 102 | 1.0 | 10.0 | 0.09 | 0.23 | 0.10 | 88 | 1018.6 |
| 20260830192838 | 81 | 122 | 3.0 | 11.0 | 0.06 | 0.20 | 0.07 | 86 | 1018.7 |
| 20260830192339 | 82 | 75 | 5.0 | 15.0 | 0.02 | 0.16 | 0.03 | 83 | 1018.7 |
| 20260830191842 | 84 | 147 | 6.0 | 15.0 | 0.00 | 0.14 | 0.01 | 78 | 1018.9 |
| 20260830191345 | 86 | 73 | 7.0 | 14.0 | 0.00 | 0.14 | 0.01 | 73 | 1018.9 |
| 20260830190850 | 86 | 105 | 4.0 | 16.0 | 0.00 | 0.14 | 0.01 | 72 | 1018.8 |
| 20260830190333 | 87 | 76 | 7.0 | 18.0 | 0.00 | 0.14 | 0.01 | 70 | 1018.8 |
| 20260830185835 | 89 | 107 | 7.0 | 18.0 | 0.00 | 0.14 | 0.01 | 67 | 1018.8 |
| 20260830185339 | 94 | 98 | 6.0 | 14.0 | 0.00 | 0.14 | 0.01 | 62 | 1018.8 |
| 20260830184843 | 94 | 90 | 2.0 | 5.0 | 0.00 | 0.14 | 0.01 | 63 | 1018.5 |
| 20260830184342 | 94 | 66 | 2.0 | 6.0 | 0.00 | 0.14 | 0.01 | 63 | 1018.5 |
| 20260830183846 | 94 | 5 | 1.0 | 6.0 | 0.00 | 0.14 | 0.01 | 63 | 1018.6 |
| 20260830183347 | 94 | 33 | 2.0 | 6.0 | 0.00 | 0.14 | 0.01 | 62 | 1018.6 |
| 20260830182845 | 94 | 113 | 1.0 | 5.0 | 0.00 | 0.14 | 0.01 | 64 | 1018.6 |
| 20260830182344 | 94 | 30 | 1.0 | 9.0 | 0.00 | 0.14 | 0.01 | 64 | 1018.8 |
| 20260830181844 | 94 | 72 | 3.0 | 9.0 | 0.00 | 0.14 | 0.01 | 65 | 1018.8 |
| 20260830181344 | 94 | 69 | 2.0 | 8.0 | 0.00 | 0.14 | 0.01 | 65 | 1018.8 |
| 20260830180843 | 93 | 109 | 2.0 | 9.0 | 0.00 | 0.14 | 0.01 | 63 | 1018.8 |
| 20260830180352 | 93 | 86 | 4.0 | 9.0 | 0.00 | 0.14 | 0.01 | 61 | 1018.7 |
| 20260830175829 | 93 | 53 | 2.0 | 6.0 | 0.00 | 0.14 | 0.01 | 63 | 1018.8 |
| 20260830175329 | 93 | 75 | 2.0 | 8.0 | 0.00 | 0.14 | 0.01 | 61 | 1018.9 |
| 20260830174856 | 93 | 47 | 4.0 | 8.0 | 0.00 | 0.14 | 0.01 | 61 | 1019.0 |
| 20260830174400 | 93 | 161 | 1.0 | 5.0 | 0.00 | 0.14 | 0.01 | 62 | 1019.1 |
| 20260830173838 | 93 | 5 | 2.0 | 5.0 | 0.00 | 0.14 | 0.01 | 63 | 1019.2 |
| 20260830173340 | 93 | 98 | 2.0 | 8.0 | 0.00 | 0.14 | 0.01 | 63 | 1019.3 |
| 20260830172844 | 93 | 89 | 3.0 | 8.0 | 0.00 | 0.14 | 0.01 | 62 | 1019.4 |
| 20260830172346 | 93 | 60 | 1.0 | 6.0 | 0.00 | 0.14 | 0.01 | 63 | 1019.4 |
| 20260830171848 | 93 | 60 | 1.0 | 4.0 | 0.00 | 0.14 | 0.01 | 65 | 1019.5 |
| 20260830171347 | 92 | 5 | 1.0 | 4.0 | 0.00 | 0.14 | 0.01 | 65 | 1019.6 |
| 20260830170825 | 92 | 134 | 2.0 | 5.0 | 0.00 | 0.14 | 0.01 | 66 | 1019.6 |
| 20260830170356 | 91 | 5 | 3.0 | 8.0 | 0.00 | 0.14 | 0.01 | 66 | 1019.7 |
| 20260830165904 | 91 | 110 | 2.0 | 8.0 | 0.00 | 0.14 | 0.01 | 67 | 1019.8 |